Location: Newark
(53.3333°N, 83.7500°E)
Time: 08:18:14
(UTC+00:00)

Vanguard 2 - Pass Details

Date: 22 November 2019
Orbit: 553 x 2938 km, 32.9° (Epoch: 05 December)

Event Time Altitude Azimuth Distance (km) Brightness Sun altitude
Rises 01:01:52 0° 211° (SSW) 6,029 12.0 -8.7°
Reaches altitude 10° 01:08:59 10° 190° (S) 4,465 11.6 -7.7°
Maximum altitude 01:13:51 14° 165° (SSE) 3,732 11.6 -7.0°
Drops below altitude 10° 01:17:57 10° 139° (SE) 3,603 12.2 -6.5°
Sets 01:22:26 0° 114° (ESE) 4,101 14.2 -5.9°
